This demonstration page uses our WeatherBlox Daily Observations layout. Learn more.

Left ArrowRight Arrow

Hourly Observations for March 19, 2021

Temp ( °F °C ) Dew Point ( °F °C ) Humidity (%) Winds ( mph kmh ) Pressure ( in mb ) Visibility ( mi km ) Precip ( " mm )
12:51 am 00:51 Clear 53 11.7 16 -8.9 23 23 ESE 8 13 30.03 1017 10 16 N/A
1:51 am 01:51 Clear 52 11.1 16 -8.9 24 24 ESE 9 15 30.03 1017 10 16 N/A
2:51 am 02:51 Clear 52 11.1 17 -8.3 25 25 ESE 8 13 30.02 1017 10 16 N/A
3:51 am 03:51 Clear 51 10.6 17 -8.3 26 26 ESE 6 9 30.01 1016 10 16 N/A
4:51 am 04:51 Clear 51 10.6 17 -8.3 26 26 E 10 17 30.02 1017 10 16 N/A
5:51 am 05:51 Clear 46 7.8 17 -8.3 31 31 N N/A 30.05 1018 10 16 N/A
6:51 am 06:51 Sunny 50 10 18 -7.8 28 28 VRB 3 6 30.08 1019 10 16 N/A
7:51 am 07:51 Sunny 57 13.9 18 -7.8 22 22 ESE 15 24 30.10 1019 10 16 N/A
8:51 am 08:51 Sunny 61 16.1 17 -8.3 18 18 SE 13 20 30.10 1019 10 16 N/A
9:51 am 09:51 Sunny 65 18.3 18 -7.8 16 16 SE 7 11 30.11 1020 10 16 N/A
10:51 am 10:51 Sunny 69 20.6 18 -7.8 14 14 SE 8 13 30.08 1019 10 16 N/A
11:51 am 11:51 Sunny 73 22.8 19 -7.2 13 13 VRB 7 11 30.05 1018 10 16 N/A
12:51 pm 12:51 Sunny 76 24.4 19 -7.2 12 12 SE 9 15 30.02 1017 10 16 N/A
1:51 pm 13:51 Sunny 78 25.6 18 -7.8 10 10 VRB 6 9 29.97 1015 10 16 N/A
2:51 pm 14:51 undefined 81 27.2 18 -7.8 9 9 undefined N/A 29.94 1014 10 16 N/A
3:51 pm 15:51 Sunny 80 26.7 12 -11.1 7 7 SW 5 7 29.93 1014 10 16 N/A
4:51 pm 16:51 Sunny 81 27.2 13 -10.6 7 7 SE 6 9 29.92 1013 10 16 N/A
5:51 pm 17:51 Sunny 81 27.2 11 -11.7 7 7 N N/A 29.93 1013 10 16 N/A
6:51 pm 18:51 Clear 74 23.3 13 -10.6 9 9 NNW 3 6 29.93 1014 10 16 N/A
7:51 pm 19:51 Clear 65 18.3 17 -8.3 16 16 NNE 6 9 29.95 1014 10 16 N/A
8:51 pm 20:51 Clear 63 17.2 15 -9.4 15 15 ESE 6 9 29.96 1015 10 16 N/A
9:51 pm 21:51 Clear 57 13.9 16 -8.9 20 20 N N/A 29.98 1015 10 16 N/A
10:51 pm 22:51 Clear 60 15.6 15 -9.4 17 17 S 3 6 29.99 1016 10 16 N/A

Powered by AerisWeather